User: anonymous   Login
Location: De Greiden
(52.9496°N, 5.9137°E)
Time: 15:29:03
(UTC+00:00)
Language:

Cosmos 1844 Rocket - Orbit

View from above orbital plane
View from above orbital plane
View from above satellite
View from above satellite

Ground track
Ground track

The orbit data is extracted from the following two-line orbital elements,

1 17974U 87041B   21107.72712116  .00000111  00000-0  78526-4 0  9991
2 17974  71.0090 198.9582 0012113  48.5932  65.6399 14.17275053754883
Epoch (UTC): 17 April 2021 17:27:03
Eccentricity: 0.0012113
inclination: 71.0090°
perigee height: 826 km
apogee height: 843 km
right ascension of ascending node: 198.9582°
argument of perigee: 48.5932°
revolutions per day: 14.17275053
mean anomaly at epoch: 65.6399°
orbit number at epoch: 75488

The dashed part of the orbit path shows where the satellite is in the earth's shadow,  

DLR